KF5FGL Weather Reports


Display with metric or nautical units.
time (UTC)temp
F
wind
direction
speed
MPH
gust
MPH
rain 1hr
in
rain 24hr
in
rain mn
in
humidity
%
barometer
mb
20260507234506 69 75 3.0 9.0 0.00 0.00 0.00 65 1014.1
20260507233032 69 10 4.0 11.0 0.00 0.00 0.00 63 1014.1
20260507231516 69 9 3.0 12.0 0.00 0.00 0.00 63 1014.1
20260507230013 69 14 4.0 12.0 0.00 0.00 0.00 64 1013.9
20260507224530 68 57 5.0 10.0 0.00 0.00 0.00 65 1014.3
20260507223012 69 84 4.0 12.0 0.00 0.00 0.00 66 1014.3
20260507221603 69 67 5.0 11.0 0.00 0.00 0.00 67 1014.1
20260507220021 68 15 4.0 9.0 0.00 0.00 0.00 66 1014.6
20260507214509 68 10 4.0 8.0 0.00 0.00 0.00 67 1014.6
20260507213104 68 33 3.0 10.0 0.00 0.00 0.00 68 1014.8
20260507211529 69 346 5.0 11.0 0.00 0.00 0.00 68 1014.8
20260507210006 68 45 5.0 11.0 0.00 0.00 0.00 70 1014.4
20260507204528 68 5 4.0 11.0 0.00 0.00 0.00 70 1014.7
20260507203015 68 73 4.0 13.0 0.00 0.00 0.00 73 1014.3
20260507201504 68 14 6.0 10.0 0.00 0.00 0.00 74 1014.4
20260507200025 66 2 4.0 12.0 0.00 0.00 0.00 75 1015.0
20260507194510 67 98 4.0 11.0 0.00 0.00 0.00 75 1014.7
20260507193029 66 58 4.0 14.0 0.00 0.00 0.00 79 1014.7
20260507191522 66 66 3.0 14.0 0.00 0.00 0.00 80 1014.3
20260507190006 66 341 4.0 12.0 0.00 0.00 0.00 79 1015.1
20260507184523 64 59 5.0 11.0 0.00 0.00 0.00 82 1015.4
20260507183012 64 51 6.0 10.0 0.00 0.00 0.00 82 1015.9
20260507181601 64 23 5.0 11.0 0.00 0.00 0.00 80 1016.3
20260507180037 64 76 7.0 18.0 0.00 0.00 0.00 81 1016.3
20260507174516 64 89 1.0 8.0 0.00 0.00 0.00 81 1015.9
20260507173039 63 67 4.0 13.0 0.00 0.00 0.00 82 1016.2
20260507171519 64 75 5.0 10.0 0.00 0.00 0.00 82 1016.2
20260507170023 63 34 5.0 12.0 0.00 0.00 0.00 83 1016.5
20260507164528 62 15 5.0 12.0 0.00 0.00 0.00 84 1016.6
20260507163016 62 360 5.0 13.0 0.00 0.00 0.00 84 1016.4
20260507161506 62 49 5.0 15.0 0.00 0.00 0.00 84 1016.5
20260507160025 61 29 6.0 12.0 0.00 0.00 0.00 85 1016.3
20260507154513 61 7 9.0 18.0 0.00 0.00 0.00 85 1016.3
20260507153001 61 36 5.0 17.0 0.00 0.00 0.00 85 1016.3
20260507151520 61 17 6.0 13.0 0.00 0.00 0.00 84 1016.1
20260507150009 62 26 5.0 17.0 0.00 0.00 0.00 84 1016.0
20260507144530 61 356 9.0 20.0 0.00 0.00 0.00 85 1015.6
20260507143015 60 340 6.0 18.0 0.00 0.00 0.00 87 1015.7
20260507141504 60 329 6.0 15.0 0.00 0.00 0.00 87 1015.9
20260507140028 60 317 6.0 16.0 0.00 0.00 0.00 87 1015.6
20260507134512 60 351 4.0 16.0 0.00 0.00 0.00 87 1016.1
20260507133028 59 10 7.0 14.0 0.00 0.00 0.00 87 1015.9
20260507131516 60 346 6.0 18.0 0.00 0.00 0.00 87 1015.4
20260507130002 60 17 5.0 16.0 0.00 0.00 0.00 87 1015.6
20260507124518 61 37 5.0 10.0 0.00 0.00 0.00 86 1015.8
20260507123007 61 356 6.0 17.0 0.00 0.00 0.00 86 1015.5
20260507121523 61 3 6.0 17.0 0.00 0.00 0.00 85 1015.0
20260507120010 62 46 6.0 15.0 0.00 0.00 0.00 84 1014.8
20260507114528 62 27 7.0 14.0 0.00 0.00 0.00 83 1014.3
20260507113019 62 35 8.0 15.0 0.00 0.00 0.00 83 1013.8
20260507111503 63 27 3.0 13.0 0.00 0.00 0.00 83 1013.7
20260507110022 63 33 5.0 11.0 0.00 0.00 0.00 83 1013.7
20260507104509 63 20 6.0 13.0 0.00 0.00 0.00 82 1013.8
20260507103034 63 351 3.0 12.0 0.00 0.00 0.00 82 1013.5
20260507101517 63 18 5.0 12.0 0.00 0.00 0.00 82 1013.4
20260507100008 63 1 5.0 13.0 0.00 0.00 0.00 82 1013.4
20260507094524 63 61 4.0 11.0 0.00 0.00 0.00 82 1013.4
20260507093016 63 20 1.0 10.0 0.00 0.00 0.00 83 1013.6
20260507091538 63 22 3.0 10.0 0.00 0.00 0.00 82 1013.6
20260507090019 63 10 2.0 8.0 0.00 0.00 0.00 83 1013.7
20260507084531 63 2 2.0 11.0 0.00 0.00 0.00 83 1013.3
20260507083027 63 356 5.0 11.0 0.00 0.00 0.00 83 1013.3
20260507081515 63 351 6.0 12.0 0.00 0.00 0.00 83 1013.2
20260507080003 63 38 3.0 11.0 0.00 0.00 0.00 83 1013.1
20260507074522 63 15 3.0 8.0 0.00 0.00 0.00 83 1013.5
20260507073011 63 77 4.0 10.0 0.00 0.00 0.00 83 1013.6
20260507071531 63 20 2.0 10.0 0.00 0.00 0.00 84 1013.5
20260507070019 63 125 3.0 10.0 0.00 0.00 0.00 84 1013.4
20260507064508 64 76 4.0 8.0 0.00 0.00 0.00 83 1013.6
20260507063027 64 3 4.0 12.0 0.00 0.00 0.00 83 1013.5
20260507061514 64 351 2.0 11.0 0.00 0.00 0.00 83 1013.4
20260507060105 64 19 5.0 13.0 0.00 0.00 0.00 83 1013.3
20260507054519 65 7 3.0 9.0 0.00 0.00 0.00 83 1013.2
20260507053007 64 41 4.0 9.0 0.00 0.00 0.00 84 1012.6
20260507051527 64 57 4.0 10.0 0.00 0.00 0.00 84 1012.9
20260507050034 64 36 4.0 11.0 0.00 0.00 0.00 84 1012.8
20260507044606 64 32 4.0 10.0 0.00 0.00 0.00 83 1013.0
20260507043019 65 31 4.0 12.0 0.00 0.00 0.00 83 1013.0
20260507041504 65 5 4.0 12.0 0.00 0.00 0.00 84 1012.5
20260507040021 65 356 4.0 10.0 0.00 0.00 0.00 83 1012.1
20260507034509 65 3 5.0 11.0 0.00 0.00 0.00 82 1011.9
20260507033030 65 16 4.0 11.0 0.00 0.00 0.00 83 1012.1
20260507031516 65 18 4.0 12.0 0.00 0.00 0.00 83 1012.0
20260507030004 65 61 4.0 12.0 0.00 0.00 0.00 82 1011.8
20260507024527 65 356 3.0 10.0 0.00 0.00 0.00 83 1011.6
20260507023011 65 10 3.0 13.0 0.00 0.00 0.00 83 1011.6
20260507021535 66 4 3.0 11.0 0.00 0.00 0.00 82 1011.2
20260507020020 65 79 5.0 11.0 0.00 0.00 0.00 82 1011.2
20260507014505 66 5 5.0 13.0 0.00 0.00 0.00 82 1010.6
20260507013023 66 20 4.0 17.0 0.00 0.00 0.00 81 1010.6
20260507011508 67 23 4.0 12.0 0.00 0.00 0.00 80 1010.2
20260507010032 67 346 6.0 13.0 0.00 0.00 0.00 80 1010.1
20260507004513 67 35 5.0 16.0 0.00 0.00 0.00 79 1009.6
20260507003027 68 3 4.0 16.0 0.00 0.00 0.00 79 1009.8
20260507001515 69 346 7.0 15.0 0.00 0.00 0.00 77 1009.6
20260507000036 72 74 6.0 13.0 0.00 0.00 0.00 75 1009.0